sat.trackr.live / text

‹ back to catalog

STARLINK-30131

NORAD 56833 · 2023-079L

PAYLOAD ACTIVE UNKNOWN

§ Identity

Operator
Country
US
Launch date
2023-06-04
Launch site
AFETR
Launch vehicle
Mass (kg)
RCS (m²)

Purposes: comms

External: N2YO · Heavens-Above · Gunter

§ Orbital elements

Epoch: 2026-09-20T17:20:39.276384Z

Period
94.37 min
Inclination
43.0086°
Eccentricity
0.0003188
Mean motion
15.25909303 rev/d
Perigee alt
485.9 km
Apogee alt
490.2 km
Semi-major
6,866.2 km
B*
7.9757e-5
RAAN
65.5948°
Arg perigee
271.1076°
Mean anomaly
88.9410°
Rev number
18,294

§ Raw data

STARLINK-301311 56833U 23079L   26263.72267681  .00001829  00000+0  79757-4 0  99922 56833  43.0086  65.5948 0003188 271.1076  88.9410 15.25909303182940

JSON: /api/v1/satellites/56833 · /tle

For live sub-satellite position, see the globe view (requires WebGL).

§ Visibility from observer

Set your observer location to see the next 7 days of passes ≥ 10°. The values pass through the URL so the page stays shareable.

No JS? Fill the form by hand. The geolocation button needs JavaScript.